AEROCUBE 8C

Last updated on Wed Sep 17 2025 00:03:49 GMT+0000 (Coordinated Universal Time)

1 41853U 16067F 25259.51597924 .00008639 00000+0 41522-3 0 9998 2 41853 98.0885 101.9163 0004659 290.0779 69.9952 15.19088967484437
UTC large
Height (km)
Speed (km/s)
/
Latitude / Longitude
Inclination (degrees)
Orbital Period (minutes)
Azimuth
Elevation
Range (km)
Doppler Factor

Next 0 passes for location: London (51.5072 / 0.1276)

Sorry there are no passes over London.